Weather History for Lihue, HI

Change the Weather History Date:

Monday, February 13, 2012

  Actual Average Record
Temperature  
Mean Temperature 76 °F 72 °F  
Max Temperature 80 °F 78 °F 85 °F (1981)
Min Temperature 72 °F 65 °F 55 °F (1986)
Degree Days  
Heating Degree Days 0 0  
Month to date heating degree days 0 0  
Since 1 July heating degree days 0 0  
Cooling Degree Days 11 7  
Month to date cooling degree days 92 91  
Year to date cooling degree days 362 300  
Growing Degree Days 26 (Base 50)    
Moisture  
Dew Point 66 °F    
Average Humidity 71    
Maximum Humidity 84    
Minimum Humidity 58    
Precipitation  
Precipitation 0.00 in 0.11 in 2.40 in (1992)
Month to date precipitation 0.18 1.43  
Year to date precipitation 4.36 5.18  
Snow  
Snow 0.00 in - - ()
Month to date snowfall 0.0  
Since 1 July snowfall 0.0  
Snow Depth 0.00 in    
Sea Level Pressure  
Sea Level Pressure 30.17 in    
Wind  
Wind Speed 12 mph (East)    
Max Wind Speed 20 mph    
Max Gust Speed 22 mph    
Visibility 10 miles    
Events      
T = Trace of Precipitation, MM = Missing Value Source: NWS Daily Summary

Daily Weather History Graph

Daily Weather History Graph

Search for Another Location

Airport:

Trip Planner

Search our weather history database for the weather conditions in past years. The results will help you decide how hot, cold, wet, or windy it might be!

Date:

Astronomy

Feb. 13, 2012 Rise Set
Actual Time 7:09 AM HST 6:33 PM HST
Civil Twilight 6:47 AM HST 6:56 PM HST
Nautical Twilight 6:20 AM HST 7:22 PM HST
Astronomical Twilight 5:54 AM HST 7:48 PM HST
Moon No Moon Rise 11:15 AM HST (2/13)
Length of Visible Light 12h 09m
Length of Day
11h 23m
Waning Gibbous, 59% of the Moon is Illuminated
Feb 13
Waning Gibbous
Feb 14
Last Quarter
Feb 21
New
Feb 29
First Quarter
Mar 7
Full

Hourly Weather History & Observations

Time (HST) Temp. Heat Index Dew Point Humidity Pressure Visibility Wind Dir Wind Speed Gust Speed Precip Events Conditions
12:53 AM 73.0 °F - 66.9 °F 81% 30.20 in 10.0 mi East 17.3 mph - N/A   Mostly Cloudy
1:08 AM 73.4 °F - 66.2 °F 78% 30.21 in 10.0 mi East 16.1 mph - N/A   Scattered Clouds
1:53 AM 73.0 °F - 68.0 °F 84% 30.19 in 10.0 mi East 17.3 mph - N/A   Overcast
2:53 AM 73.0 °F - 66.9 °F 81% 30.17 in 10.0 mi East 16.1 mph - N/A   Overcast
3:39 AM 73.4 °F - 66.2 °F 78% 30.17 in 10.0 mi East 12.7 mph - N/A   Overcast
3:53 AM 73.0 °F - 66.9 °F 81% 30.16 in 10.0 mi East 11.5 mph - N/A   Overcast
4:12 AM 73.4 °F - 66.2 °F 78% 30.16 in 10.0 mi East 12.7 mph - N/A   Overcast
4:53 AM 73.0 °F - 66.0 °F 79% 30.17 in 10.0 mi East 13.8 mph - N/A   Overcast
5:25 AM 73.4 °F - 66.2 °F 78% 30.18 in 10.0 mi East 12.7 mph - N/A   Mostly Cloudy
5:53 AM 73.0 °F - 66.0 °F 79% 30.18 in 10.0 mi East 13.8 mph - N/A   Mostly Cloudy
6:53 AM 73.0 °F - 66.0 °F 79% 30.19 in 10.0 mi East 11.5 mph - N/A   Overcast
7:41 AM 73.4 °F - 66.2 °F 78% 30.21 in 10.0 mi East 11.5 mph - N/A   Overcast
7:53 AM 73.0 °F - 66.0 °F 79% 30.21 in 10.0 mi East 10.4 mph - N/A   Overcast
8:10 AM 73.4 °F - 66.2 °F 78% 30.22 in 10.0 mi East 15.0 mph - N/A   Overcast
8:44 AM 75.2 °F - 66.2 °F 73% 30.22 in 10.0 mi East 11.5 mph - N/A   Mostly Cloudy
8:53 AM 75.0 °F - 66.9 °F 76% 30.22 in 10.0 mi East 13.8 mph - N/A   Mostly Cloudy
9:53 AM 78.1 °F - 66.9 °F 68% 30.22 in 10.0 mi East 12.7 mph - N/A   Mostly Cloudy
10:01 AM 78.8 °F - 66.2 °F 65% 30.22 in 10.0 mi East 12.7 mph - N/A   Overcast
10:37 AM 78.8 °F - 66.2 °F 65% 30.22 in 10.0 mi East 13.8 mph - N/A   Overcast
10:53 AM 80.1 °F 81.9 °F 64.9 °F 60% 30.21 in 10.0 mi East 11.5 mph - N/A   Overcast
11:53 AM 78.1 °F - 63.0 °F 60% 30.19 in 10.0 mi East 12.7 mph - N/A   Scattered Clouds
12:53 PM 79.0 °F - 66.0 °F 64% 30.16 in 10.0 mi East 12.7 mph - N/A   Scattered Clouds
1:53 PM 78.1 °F - 66.9 °F 68% 30.13 in 10.0 mi East 11.5 mph - N/A   Overcast
2:53 PM 77.0 °F - 66.9 °F 71% 30.11 in 10.0 mi East 10.4 mph - N/A   Scattered Clouds
3:53 PM 75.9 °F - 66.0 °F 71% 30.11 in 10.0 mi East 11.5 mph - N/A   Scattered Clouds
4:53 PM 75.9 °F - 66.0 °F 71% 30.11 in 10.0 mi East 10.4 mph - N/A   Partly Cloudy
5:38 PM 73.4 °F - 66.2 °F 78% 30.12 in 10.0 mi East 10.4 mph - N/A   Mostly Cloudy
5:53 PM 73.9 °F - 66.0 °F 76% 30.12 in 10.0 mi East 10.4 mph - N/A   Mostly Cloudy
6:07 PM 73.4 °F - 66.2 °F 78% 30.12 in 10.0 mi East 12.7 mph - N/A   Scattered Clouds
6:53 PM 73.0 °F - 66.0 °F 79% 30.13 in 10.0 mi East 9.2 mph - N/A   Scattered Clouds
7:02 PM 73.4 °F - 66.2 °F 78% 30.14 in 10.0 mi East 9.2 mph - N/A   Mostly Cloudy
7:37 PM 73.4 °F - 66.2 °F 78% 30.15 in 10.0 mi East 11.5 mph - N/A   Mostly Cloudy
7:53 PM 73.0 °F - 66.0 °F 79% 30.15 in 10.0 mi East 10.4 mph - N/A   Scattered Clouds
8:53 PM 73.0 °F - 66.0 °F 79% 30.16 in 10.0 mi East 10.4 mph - N/A   Partly Cloudy
9:53 PM 73.0 °F - 66.0 °F 79% 30.16 in 10.0 mi East 10.4 mph - N/A   Mostly Cloudy
10:53 PM 73.0 °F - 66.0 °F 79% 30.16 in 10.0 mi East 9.2 mph - N/A   Overcast
11:03 PM 73.4 °F - 66.2 °F 78% 30.16 in 10.0 mi East 9.2 mph - N/A   Overcast
11:53 PM 73.0 °F - 66.0 °F 79% 30.15 in 10.0 mi East 10.4 mph - N/A   Overcast